DW8787 Weather Reports


time (UTC)temp
C
wind
direction
speed
KPH
gust
KPH
rain 1hr
cm
rain 24hr
cm
rain mn
cm
humidity
%
barometer
mb
20260505124504 11 259 0.0 0.0 0.00 0.00 0.00 91 1014.7
20260505123001 11 259 0.0 0.0 0.00 0.00 0.00 91 1014.6
20260505121627 11 259 0.0 0.0 0.00 0.00 0.00 92 1014.6
20260505120059 11 259 0.0 0.0 0.00 0.00 0.00 92 1014.4
20260505114600 11 259 0.0 0.0 0.00 0.00 0.00 92 1014.4
20260505113103 11 259 0.0 0.0 0.00 0.00 0.00 92 1014.4
20260505111557 11 259 0.0 0.0 0.00 0.00 0.00 92 1014.6
20260505101551 11 259 0.0 0.0 0.00 0.00 0.00 92 1014.2
20260505100127 11 259 0.0 0.0 0.00 0.00 0.00 92 1014.2
20260505100033 11 259 0.0 0.0 0.00 0.00 0.00 92 1014.2
20260505094548 11 259 0.0 0.0 0.00 0.00 0.00 92 1014.2
20260505093052 11 259 0.0 0.0 0.00 0.00 0.00 92 1014.0
20260505091608 11 259 0.0 0.0 0.00 0.00 0.00 92 1014.0
20260505090057 11 259 0.0 0.0 0.00 0.00 0.00 93 1013.9
20260505084546 11 259 0.0 3.2 0.00 0.00 0.00 93 1013.7
20260505083049 11 275 0.0 1.6 0.00 0.00 0.00 94 1013.7
20260505081543 11 314 0.0 0.0 0.00 0.00 0.00 94 1013.8
20260505080045 10 314 0.0 0.0 0.00 0.00 0.00 95 1013.9
20260505074539 10 314 0.0 0.0 0.00 0.00 0.00 95 1013.8
20260505073042 10 314 0.0 0.0 0.00 0.00 0.00 95 1013.6
20260505071537 10 314 0.0 0.0 0.00 0.00 0.00 96 1013.4
20260505070030 10 314 0.0 0.0 0.00 0.00 0.00 96 1013.1
20260505064526 9 314 0.0 0.0 0.00 0.00 0.00 96 1013.2
20260505063036 8 314 0.0 0.0 0.00 0.00 0.00 94 1013.0
20260505061532 9 314 0.0 0.0 0.00 0.00 0.00 94 1012.9
20260505060025 9 314 0.0 0.0 0.00 0.00 0.00 93 1012.9
20260505054529 10 314 0.0 0.0 0.00 0.00 0.00 92 1012.6
20260505053021 10 314 0.0 0.0 0.00 0.00 0.00 92 1012.7
20260505051533 10 314 0.0 1.6 0.00 0.00 0.00 91 1012.6
20260505041522 12 283 0.0 3.2 0.00 0.00 0.00 84 1012.0
20260505040015 13 290 0.0 6.4 0.00 0.00 0.00 83 1011.9
20260505034513 14 265 1.6 4.8 0.00 0.00 0.00 81 1011.8
20260505033014 15 273 0.0 8.0 0.00 0.00 0.00 78 1011.5
20260505031523 16 293 1.6 8.0 0.00 0.00 0.00 76 1011.2
20260505030011 16 238 1.6 9.7 0.00 0.00 0.00 73 1011.1
20260505024510 17 285 1.6 6.4 0.00 0.00 0.00 69 1010.8
20260505023010 18 319 0.0 4.8 0.00 0.00 0.00 66 1010.8
20260505021508 19 219 0.0 9.7 0.00 0.00 0.00 62 1010.7
20260505020009 20 290 1.6 12.9 0.00 0.00 0.00 57 1010.7
20260505014514 21 119 1.6 12.9 0.00 0.00 0.00 55 1010.5
20260505013007 21 290 3.2 17.7 0.00 0.00 0.00 51 1010.6
20260505011512 22 293 0.0 12.9 0.00 0.00 0.00 52 1010.7
20260505010014 22 269 3.2 16.1 0.00 0.00 0.00 49 1010.6
20260505004506 23 164 3.2 14.5 0.00 0.00 0.00 46 1010.5
20260505003006 23 239 4.8 16.1 0.00 0.00 0.00 46 1010.4
20260505001505 24 285 3.2 9.7 0.00 0.00 0.00 45 1010.4
20260505000005 25 252 3.2 12.9 0.00 0.00 0.00 49 1010.4
20260504234505 24 260 3.2 12.9 0.00 0.00 0.00 48 1010.2
20260504233002 25 290 6.4 12.9 0.00 0.00 0.00 47 1010.2
20260504231502 25 217 4.8 12.9 0.00 0.00 0.00 48 1010.3
20260504230001 25 293 1.6 12.9 0.00 0.00 0.00 51 1010.4
20260504224503 25 267 3.2 12.9 0.00 0.00 0.00 53 1010.3
20260504223110 26 259 1.6 14.5 0.00 0.00 0.00 50 1010.3
20260504221558 25 297 0.0 9.7 0.00 0.00 0.00 48 1010.6
20260504220100 25 50 4.8 12.9 0.00 0.00 0.00 46 1010.8
20260504214554 25 297 1.6 11.3 0.00 0.00 0.00 50 1010.9
20260504213058 24 290 3.2 14.5 0.00 0.00 0.00 52 1011.0
20260504211557 25 250 4.8 11.3 0.00 0.00 0.00 54 1011.1
20260504210059 23 188 1.6 17.7 0.00 0.00 0.00 57 1011.2
20260504204549 23 290 6.4 12.9 0.00 0.00 0.00 59 1011.2
20260504203047 23 279 4.8 9.7 0.00 0.00 0.00 59 1011.3
20260504201546 22 122 3.2 9.7 0.00 0.00 0.00 60 1011.4
20260504200049 22 320 1.6 6.4 0.00 0.00 0.00 60 1011.5
20260504194536 22 325 1.6 9.7 0.00 0.00 0.00 58 1011.7
20260504193033 22 294 4.8 11.3 0.00 0.00 0.00 60 1011.8
20260504191530 21 113 3.2 9.7 0.00 0.00 0.00 62 1011.9
20260504190028 21 119 6.4 12.9 0.00 0.00 0.00 62 1011.9
20260504184533 20 330 1.6 11.3 0.00 0.00 0.00 64 1012.1
20260504183032 20 75 3.2 9.7 0.00 0.00 0.00 64 1012.0
20260504181521 20 1 3.2 11.3 0.00 0.00 0.00 66 1012.0
20260504180022 20 339 0.0 4.8 0.00 0.00 0.00 67 1012.1
20260504174517 18 18 3.2 11.3 0.00 0.00 0.00 70 1012.1
20260504173014 18 307 1.6 6.4 0.00 0.00 0.00 70 1012.0
20260504171511 18 329 1.6 8.0 0.00 0.00 0.00 72 1012.0
20260504160104 16 49 0.0 4.8 0.00 0.00 0.00 79 1011.7